loading
DOY 203 | 2024-07-21T11:30:02Z

OBJECT C, 60205

Orbit data source: Space-Track

OBJECT C, 60205 is a satellite owned by Teachers in Space (US) in LEO that was launched on Thu, 04 Jul 2024 UTC via a Firefly Alpha launch vehicle from the Air Force Western Test Range (AFWTR). Unknown objects in Earth's orbit typically refer to objects detected orbiting the Earth but have not yet been identified or cataloged. These objects could be anything from previously untracked satellites, spent rocket stages, debris from satellite collisions, or even natural meteoroids temporarily captured by Earth's gravity.

Loading next visibility...
Loading greatness...
OBJECT C details
NORAD ID60205
COSPAR ID
2024-125C
Orbit
LEO
Last TLE update4 days ago
Origin
Flag of USTeachers in Space (US)
ManufacturerQuub
BusCubesat 3U
MotorUnknown
Mass3 kg wet, 3 kg dry
Launch date (UTC)
2024-07-04 (2 weeks ago)
Launch vehicle
Firefly Alpha
Launch site
Air Force Western Test Range (AFWTR)
Object typeUnknown
Radar Cross SectionSmall (<0.1 m²)
Predictive object data (real-time)
Latitude33.85976°
Longitude-94.26698°
Altitude496.751 km
Speed7.625 km/s
Apparent Right ascension14h 24m 45s
Apparent Declination-1° 34' 29"
Sunlit
Object is in daylight
Predictive observer data (real-time)
Local Sidereal Time00:28:28
Azimuth318.004° NNW
Elevation-43.451°
Doppler factor1
Orbital elements
Apogee515.483 km
Perigee485.223 km
Semi-major axis6,878.49 km
Eccentricity0.0021996
Inclination97.3224°
RAAN51.6408°
Arg. of periapsis205.9962°
True anomaly154.12725°
Mean anomaly154.0171°
Mean motion3.80455 °/min
BSTAR0.00079046
Period94.62 mins
Definitive object data (Epoch: 2024-07-17T02:38:36.831Z)
Latitude0.00001°
Longitude76.56796°
Altitude520.101 km
Speed7.596 km/s
True Right ascension03h 26m 33s
True Declination0° 00' 00"
Sunlit
Object was in daylight at TLE epoch
TLE from 4 days ago
0 OBJECT C
1 60205U 24125C   24199.11014851  .00017503  00000-0  79046-3 0  9998
2 60205  97.3224  51.6408 0021996 205.9962 154.0171 15.20811535  1962
Epoch: 2024-07-17T02:38Z
No data available

OBJECT C Visibility forecast

Observer location: 39.9160978°, -105.1181434

OBJECT C is not visible in the next 10 days
Span
Click to sort rows by Start time (UTC) header in descending order
Start Az.
Max El. time (UTC)
Max El. Az.
Max El.
End time (UTC)
End Az.